Year,Month,Day,Hour,Minute,Value (Times are PST for temperature in C)
2006,04,23,00,00,6.20
2006,04,23,00,01,6.10
2006,04,23,00,02,6.10
2006,04,23,00,03,6.00
2006,04,23,00,04,6.00
2006,04,23,00,05,6.00
2006,04,23,00,06,6.00
2006,04,23,00,07,6.10
2006,04,23,00,08,6.00
2006,04,23,00,09,5.90
2006,04,23,00,10,5.90
2006,04,23,00,11,5.80
2006,04,23,00,12,5.70
2006,04,23,00,13,5.60
2006,04,23,00,14,5.60
2006,04,23,00,15,5.50
2006,04,23,00,16,5.40
2006,04,23,00,17,5.40
2006,04,23,00,18,5.40
2006,04,23,00,19,5.40
2006,04,23,00,20,5.40
2006,04,23,00,21,5.40
2006,04,23,00,22,5.40
2006,04,23,00,23,5.50
2006,04,23,00,24,5.50
2006,04,23,00,25,5.40
2006,04,23,00,26,5.40
2006,04,23,00,27,5.50
2006,04,23,00,28,5.50
2006,04,23,00,29,5.50
2006,04,23,00,30,5.40
2006,04,23,00,31,5.30
2006,04,23,00,32,5.30
2006,04,23,00,33,5.30
2006,04,23,00,34,5.30
2006,04,23,00,35,5.30
2006,04,23,00,36,5.30
2006,04,23,00,37,5.40
2006,04,23,00,38,5.40
2006,04,23,00,39,5.40
2006,04,23,00,40,5.40
2006,04,23,00,41,5.50
2006,04,23,00,42,5.50
2006,04,23,00,43,5.60
2006,04,23,00,44,5.60
2006,04,23,00,45,5.60
2006,04,23,00,46,5.60
2006,04,23,00,47,5.60
2006,04,23,00,48,5.70
2006,04,23,00,49,5.80
2006,04,23,00,50,5.90
2006,04,23,00,51,6.00
2006,04,23,00,52,6.10
2006,04,23,00,53,6.20
2006,04,23,00,54,6.20
2006,04,23,00,55,6.30
2006,04,23,00,56,6.30
2006,04,23,00,57,6.30
2006,04,23,00,58,6.20
2006,04,23,00,59,6.20
2006,04,23,01,00,6.20
2006,04,23,01,01,6.20
2006,04,23,01,02,6.20
2006,04,23,01,03,6.20
2006,04,23,01,04,6.10
2006,04,23,01,05,6.10
2006,04,23,01,06,6.00
2006,04,23,01,07,6.00
2006,04,23,01,08,6.00
2006,04,23,01,09,6.00
2006,04,23,01,10,6.00
2006,04,23,01,11,5.90
2006,04,23,01,12,5.80
2006,04,23,01,13,5.80
2006,04,23,01,14,5.70
2006,04,23,01,15,5.60
2006,04,23,01,16,5.60
2006,04,23,01,17,5.50
2006,04,23,01,18,5.40
2006,04,23,01,19,5.30
2006,04,23,01,20,5.30
2006,04,23,01,21,5.30
2006,04,23,01,22,5.20
2006,04,23,01,23,5.20
2006,04,23,01,24,5.10
2006,04,23,01,25,5.10
2006,04,23,01,26,5.10
2006,04,23,01,27,5.10
2006,04,23,01,28,4.90
2006,04,23,01,29,4.90
2006,04,23,01,30,4.90
2006,04,23,01,31,4.80
2006,04,23,01,32,4.80
2006,04,23,01,33,4.70
2006,04,23,01,34,4.60
2006,04,23,01,35,4.70
2006,04,23,01,36,4.70
2006,04,23,01,37,4.60
2006,04,23,01,38,4.60
2006,04,23,01,39,4.70
2006,04,23,01,40,4.70
2006,04,23,01,41,4.70
2006,04,23,01,42,4.70
2006,04,23,01,43,4.70
2006,04,23,01,44,4.70
2006,04,23,01,45,4.80
2006,04,23,01,46,4.80
2006,04,23,01,47,4.80
2006,04,23,01,48,4.70
2006,04,23,01,49,4.70
2006,04,23,01,50,4.70
2006,04,23,01,51,4.60
2006,04,23,01,52,4.60
2006,04,23,01,53,4.60
2006,04,23,01,54,4.60
2006,04,23,01,55,4.60
2006,04,23,01,56,4.60
2006,04,23,01,57,4.60
2006,04,23,01,58,4.50
2006,04,23,01,59,4.50
2006,04,23,02,00,4.40
2006,04,23,02,01,4.40
2006,04,23,02,02,4.40
2006,04,23,02,03,4.40
2006,04,23,02,04,4.40
2006,04,23,02,05,4.40
2006,04,23,02,06,4.40
2006,04,23,02,07,4.40
2006,04,23,02,08,4.40
2006,04,23,02,09,4.30
2006,04,23,02,10,4.30
2006,04,23,02,11,4.20
2006,04,23,02,12,4.20
2006,04,23,02,13,4.20
2006,04,23,02,14,4.20
2006,04,23,02,15,4.20
2006,04,23,02,16,4.20
2006,04,23,02,17,4.20
2006,04,23,02,18,4.10
2006,04,23,02,19,4.10
2006,04,23,02,20,4.00
2006,04,23,02,21,4.00
2006,04,23,02,22,3.90
2006,04,23,02,23,3.90
2006,04,23,02,24,3.80
2006,04,23,02,25,3.80
2006,04,23,02,26,3.80
2006,04,23,02,27,3.80
2006,04,23,02,28,3.80
2006,04,23,02,29,3.80
2006,04,23,02,30,3.80
2006,04,23,02,31,3.80
2006,04,23,02,32,3.80
2006,04,23,02,33,3.80
2006,04,23,02,34,3.80
2006,04,23,02,35,3.80
2006,04,23,02,36,3.80
2006,04,23,02,37,3.80
2006,04,23,02,38,3.80
2006,04,23,02,39,3.80
2006,04,23,02,40,3.80
2006,04,23,02,41,3.80
2006,04,23,02,42,3.80
2006,04,23,02,43,3.80
2006,04,23,02,44,3.70
2006,04,23,02,45,3.70
2006,04,23,02,46,3.70
2006,04,23,02,47,3.60
2006,04,23,02,48,3.60
2006,04,23,02,49,3.60
2006,04,23,02,50,3.60
2006,04,23,02,51,3.50
2006,04,23,02,52,3.50
2006,04,23,02,53,3.50
2006,04,23,02,54,3.50
2006,04,23,02,55,3.50
2006,04,23,02,56,3.50
2006,04,23,02,57,3.40
2006,04,23,02,58,3.40
2006,04,23,02,59,3.40
2006,04,23,03,00,3.40
2006,04,23,03,01,3.40
2006,04,23,03,02,3.40
2006,04,23,03,03,3.40
2006,04,23,03,04,3.40
2006,04,23,03,05,3.30
2006,04,23,03,06,3.30
2006,04,23,03,07,3.30
2006,04,23,03,08,3.30
2006,04,23,03,09,3.30
2006,04,23,03,10,3.30
2006,04,23,03,11,3.30
2006,04,23,03,12,3.30
2006,04,23,03,13,3.30
2006,04,23,03,14,3.30
2006,04,23,03,15,3.30
2006,04,23,03,16,3.30
2006,04,23,03,17,3.30
2006,04,23,03,18,3.30
2006,04,23,03,19,3.30
2006,04,23,03,20,3.30
2006,04,23,03,21,3.30
2006,04,23,03,22,3.30
2006,04,23,03,23,3.30
2006,04,23,03,24,3.30
2006,04,23,03,25,3.30
2006,04,23,03,26,3.30
2006,04,23,03,27,3.40
2006,04,23,03,28,3.40
2006,04,23,03,29,3.50
2006,04,23,03,30,3.50
2006,04,23,03,31,3.50
2006,04,23,03,32,3.50
2006,04,23,03,33,3.60
2006,04,23,03,34,3.60
2006,04,23,03,35,3.60
2006,04,23,03,36,3.60
2006,04,23,03,37,3.60
2006,04,23,03,38,3.60
2006,04,23,03,39,3.60
2006,04,23,03,40,3.60
2006,04,23,03,41,3.50
2006,04,23,03,42,3.50
2006,04,23,03,43,3.50
2006,04,23,03,44,3.60
2006,04,23,03,45,3.60
2006,04,23,03,46,3.60
2006,04,23,03,47,3.60
2006,04,23,03,48,3.60
2006,04,23,03,49,3.50
2006,04,23,03,50,3.50
2006,04,23,03,51,3.50
2006,04,23,03,52,3.50
2006,04,23,03,53,3.50
2006,04,23,03,54,3.40
2006,04,23,03,55,3.40
2006,04,23,03,56,3.30
2006,04,23,03,57,3.30
2006,04,23,03,58,3.40
2006,04,23,03,59,3.50
2006,04,23,04,00,3.60
2006,04,23,04,01,3.60
2006,04,23,04,02,3.60
2006,04,23,04,03,3.50
2006,04,23,04,04,3.50
2006,04,23,04,05,3.50
2006,04,23,04,06,3.50
2006,04,23,04,07,3.40
2006,04,23,04,08,3.40
2006,04,23,04,09,3.30
2006,04,23,04,10,3.30
2006,04,23,04,11,3.30
2006,04,23,04,12,3.40
2006,04,23,04,13,3.40
2006,04,23,04,14,3.40
2006,04,23,04,15,3.40
2006,04,23,04,16,3.50
2006,04,23,04,17,3.50
2006,04,23,04,18,3.50
2006,04,23,04,19,3.50
2006,04,23,04,20,3.50
2006,04,23,04,21,3.60
2006,04,23,04,22,3.70
2006,04,23,04,23,3.70
2006,04,23,04,24,3.70
2006,04,23,04,25,3.70
2006,04,23,04,26,3.70
2006,04,23,04,27,3.80
2006,04,23,04,28,3.80
2006,04,23,04,29,3.80
2006,04,23,04,30,3.80
2006,04,23,04,31,3.80
2006,04,23,04,32,3.80
2006,04,23,04,33,3.80
2006,04,23,04,34,3.80
2006,04,23,04,35,3.80
2006,04,23,04,36,3.80
2006,04,23,04,37,3.80
2006,04,23,04,38,3.80
2006,04,23,04,39,3.80
2006,04,23,04,40,3.80
2006,04,23,04,41,3.90
2006,04,23,04,42,3.90
2006,04,23,04,43,3.90
2006,04,23,04,44,3.90
2006,04,23,04,45,4.00
2006,04,23,04,46,4.00
2006,04,23,04,47,4.00
2006,04,23,04,48,4.10
2006,04,23,04,49,4.10
2006,04,23,04,50,4.20
2006,04,23,04,51,4.30
2006,04,23,04,52,4.30
2006,04,23,04,53,4.30
2006,04,23,04,54,4.30
2006,04,23,04,55,4.30
2006,04,23,04,56,4.40
2006,04,23,04,57,4.40
2006,04,23,04,58,4.50
2006,04,23,04,59,4.50
2006,04,23,05,00,4.60
2006,04,23,05,01,4.60
2006,04,23,05,02,4.70
2006,04,23,05,03,4.70
2006,04,23,05,04,4.80
2006,04,23,05,05,4.90
2006,04,23,05,06,4.90
2006,04,23,05,07,4.90
2006,04,23,05,08,4.90
2006,04,23,05,09,4.90
2006,04,23,05,10,4.90
2006,04,23,05,11,4.90
2006,04,23,05,12,4.90
2006,04,23,05,13,4.90
2006,04,23,05,14,4.90
2006,04,23,05,15,5.00
2006,04,23,05,16,5.10
2006,04,23,05,17,5.20
2006,04,23,05,18,5.20
2006,04,23,05,19,5.20
2006,04,23,05,20,5.20
2006,04,23,05,21,5.20
2006,04,23,05,22,5.20
2006,04,23,05,23,5.20
2006,04,23,05,24,5.10
2006,04,23,05,25,5.00
2006,04,23,05,26,4.90
2006,04,23,05,27,4.80
2006,04,23,05,28,4.70
2006,04,23,05,29,4.70
2006,04,23,05,30,4.60
2006,04,23,05,31,4.60
2006,04,23,05,32,4.60
2006,04,23,05,33,4.60
2006,04,23,05,34,4.60
2006,04,23,05,35,4.60
2006,04,23,05,36,4.70
2006,04,23,05,37,4.80
2006,04,23,05,38,4.90
2006,04,23,05,39,5.10
2006,04,23,05,40,5.10
2006,04,23,05,41,5.20
2006,04,23,05,42,5.40
2006,04,23,05,43,5.50
2006,04,23,05,44,5.60
2006,04,23,05,45,5.70
2006,04,23,05,46,5.70
2006,04,23,05,47,5.80
2006,04,23,05,48,5.80
2006,04,23,05,49,5.70
2006,04,23,05,50,5.80
2006,04,23,05,51,5.80
2006,04,23,05,52,5.80
2006,04,23,05,53,5.80
2006,04,23,05,54,5.80
2006,04,23,05,55,5.90
2006,04,23,05,56,5.90
2006,04,23,05,57,5.90
2006,04,23,05,58,5.80
2006,04,23,05,59,5.80
2006,04,23,06,00,5.80
2006,04,23,06,01,5.70
2006,04,23,06,02,5.70
2006,04,23,06,03,5.60
2006,04,23,06,04,5.40
2006,04,23,06,05,5.30
2006,04,23,06,06,5.30
2006,04,23,06,07,5.30
2006,04,23,06,08,5.30
2006,04,23,06,09,5.30
2006,04,23,06,10,5.30
2006,04,23,06,11,5.30
2006,04,23,06,12,5.20
2006,04,23,06,13,5.10
2006,04,23,06,14,5.10
2006,04,23,06,15,5.00
2006,04,23,06,16,4.90
2006,04,23,06,17,5.00
2006,04,23,06,18,5.10
2006,04,23,06,19,5.10
2006,04,23,06,20,5.20
2006,04,23,06,21,5.20
2006,04,23,06,22,5.30
2006,04,23,06,23,5.40
2006,04,23,06,24,5.40
2006,04,23,06,25,5.60
2006,04,23,06,26,5.80
2006,04,23,06,27,5.90
2006,04,23,06,28,6.10
2006,04,23,06,29,6.20
2006,04,23,06,30,6.30
2006,04,23,06,31,6.30
2006,04,23,06,32,6.40
2006,04,23,06,33,6.40
2006,04,23,06,34,6.40
2006,04,23,06,35,6.40
2006,04,23,06,36,6.40
2006,04,23,06,37,6.40
2006,04,23,06,38,6.50
2006,04,23,06,39,6.60
2006,04,23,06,40,6.60
2006,04,23,06,41,6.60
2006,04,23,06,42,6.60
2006,04,23,06,43,6.70
2006,04,23,06,44,6.70
2006,04,23,06,45,6.80
2006,04,23,06,46,6.80
2006,04,23,06,47,6.80
2006,04,23,06,48,6.90
2006,04,23,06,49,6.90
2006,04,23,06,50,6.90
2006,04,23,06,51,7.00
2006,04,23,06,52,7.00
2006,04,23,06,53,7.00
2006,04,23,06,54,7.00
2006,04,23,06,55,7.10
2006,04,23,06,56,7.10
2006,04,23,06,57,7.10
2006,04,23,06,58,7.10
2006,04,23,06,59,7.10
2006,04,23,07,00,7.20
2006,04,23,07,01,7.30
2006,04,23,07,02,7.30
2006,04,23,07,03,7.30
2006,04,23,07,04,7.30
2006,04,23,07,05,7.40
2006,04,23,07,06,7.40
2006,04,23,07,07,7.40
2006,04,23,07,08,7.40
2006,04,23,07,09,7.50
2006,04,23,07,10,7.50
2006,04,23,07,11,7.50
2006,04,23,07,12,7.60
2006,04,23,07,13,7.60
2006,04,23,07,14,7.60
2006,04,23,07,15,7.70
2006,04,23,07,16,7.70
2006,04,23,07,17,7.70
2006,04,23,07,18,7.80
2006,04,23,07,19,7.90
2006,04,23,07,20,7.90
2006,04,23,07,21,7.90
2006,04,23,07,22,7.90
2006,04,23,07,23,7.90
2006,04,23,07,24,7.90
2006,04,23,07,25,7.90
2006,04,23,07,26,8.00
2006,04,23,07,27,8.00
2006,04,23,07,28,8.10
2006,04,23,07,29,8.10
2006,04,23,07,30,8.10
2006,04,23,07,31,8.10
2006,04,23,07,32,8.10
2006,04,23,07,33,8.20
2006,04,23,07,34,8.20
2006,04,23,07,35,8.30
2006,04,23,07,36,8.30
2006,04,23,07,37,8.30
2006,04,23,07,38,8.40
2006,04,23,07,39,8.40
2006,04,23,07,40,8.40
2006,04,23,07,41,8.40
2006,04,23,07,42,8.40
2006,04,23,07,43,8.40
2006,04,23,07,44,8.50
2006,04,23,07,45,8.50
2006,04,23,07,46,8.50
2006,04,23,07,47,8.60
2006,04,23,07,48,8.60
2006,04,23,07,49,8.70
2006,04,23,07,50,8.70
2006,04,23,07,51,8.70
2006,04,23,07,52,8.70
2006,04,23,07,53,8.80
2006,04,23,07,54,8.90
2006,04,23,07,55,8.90
2006,04,23,07,56,9.00
2006,04,23,07,57,9.10
2006,04,23,07,58,9.20
2006,04,23,07,59,9.20
2006,04,23,08,00,9.30
2006,04,23,08,01,9.40
2006,04,23,08,02,9.40
2006,04,23,08,03,9.60
2006,04,23,08,04,9.70
2006,04,23,08,05,9.80
2006,04,23,08,06,9.90
2006,04,23,08,07,9.90
2006,04,23,08,08,10.00
2006,04,23,08,09,10.10
2006,04,23,08,10,10.20
2006,04,23,08,11,10.20
2006,04,23,08,12,10.30
2006,04,23,08,13,10.30
2006,04,23,08,14,10.40
2006,04,23,08,15,10.40
2006,04,23,08,16,10.40
2006,04,23,08,17,10.40
2006,04,23,08,18,10.50
2006,04,23,08,19,10.60
2006,04,23,08,20,10.60
2006,04,23,08,21,10.70
2006,04,23,08,22,10.70
2006,04,23,08,23,10.80
2006,04,23,08,24,10.80
2006,04,23,08,25,10.90
2006,04,23,08,26,10.90
2006,04,23,08,27,10.90
2006,04,23,08,28,11.10
2006,04,23,08,29,11.10
2006,04,23,08,30,11.10
2006,04,23,08,31,11.20
2006,04,23,08,32,11.30
2006,04,23,08,33,11.40
2006,04,23,08,34,11.40
2006,04,23,08,35,11.60
2006,04,23,08,36,11.60
2006,04,23,08,37,11.60
2006,04,23,08,38,11.60
2006,04,23,08,39,11.70
2006,04,23,08,40,11.70
2006,04,23,08,41,11.80
2006,04,23,08,42,11.80
2006,04,23,08,43,11.90
2006,04,23,08,44,12.00
2006,04,23,08,45,12.00
2006,04,23,08,46,12.00
2006,04,23,08,47,12.10
2006,04,23,08,48,12.20
2006,04,23,08,49,12.20
2006,04,23,08,50,12.30
2006,04,23,08,51,12.30
2006,04,23,08,52,12.40
2006,04,23,08,53,12.40
2006,04,23,08,54,12.50
2006,04,23,08,55,12.70
2006,04,23,08,56,12.80
2006,04,23,08,57,12.80
2006,04,23,08,58,13.30
2006,04,23,08,59,13.50
2006,04,23,09,00,13.60
2006,04,23,09,01,13.70
2006,04,23,09,02,13.80
2006,04,23,09,03,13.90
2006,04,23,09,04,14.00
2006,04,23,09,05,14.00
2006,04,23,09,06,14.00
2006,04,23,09,07,14.00
2006,04,23,09,08,14.10
2006,04,23,09,09,14.10
2006,04,23,09,10,14.10
2006,04,23,09,11,14.10
2006,04,23,09,12,14.20
2006,04,23,09,13,14.10
2006,04,23,09,14,14.10
2006,04,23,09,15,14.10
2006,04,23,09,16,14.10
2006,04,23,09,17,14.10
2006,04,23,09,18,14.10
2006,04,23,09,19,14.10
2006,04,23,09,20,14.20
2006,04,23,09,21,14.20
2006,04,23,09,22,14.20
2006,04,23,09,23,14.30
2006,04,23,09,24,14.30
2006,04,23,09,25,14.40
2006,04,23,09,26,14.40
2006,04,23,09,27,14.40
2006,04,23,09,28,14.40
2006,04,23,09,29,14.40
2006,04,23,09,30,14.40
2006,04,23,09,31,14.40
2006,04,23,09,32,14.50
2006,04,23,09,33,14.50
2006,04,23,09,34,14.50
2006,04,23,09,35,14.60
2006,04,23,09,36,14.60
2006,04,23,09,37,14.70
2006,04,23,09,38,14.70
2006,04,23,09,39,14.60
2006,04,23,09,40,14.60
2006,04,23,09,41,14.60
2006,04,23,09,42,14.70
2006,04,23,09,43,14.70
2006,04,23,09,44,14.70
2006,04,23,09,45,14.80
2006,04,23,09,46,14.80
2006,04,23,09,47,14.80
2006,04,23,09,48,14.80
2006,04,23,09,49,14.80
2006,04,23,09,50,14.80
2006,04,23,09,51,14.80
2006,04,23,09,52,14.80
2006,04,23,09,53,14.80
2006,04,23,09,54,14.80
2006,04,23,09,55,14.80
2006,04,23,09,56,14.80
2006,04,23,09,57,14.90
2006,04,23,09,58,14.90
2006,04,23,09,59,15.00
2006,04,23,10,00,15.00
2006,04,23,10,01,15.10
2006,04,23,10,02,15.10
2006,04,23,10,03,15.00
2006,04,23,10,04,15.00
2006,04,23,10,05,15.00
2006,04,23,10,06,15.00
2006,04,23,10,07,15.00
2006,04,23,10,08,15.00
2006,04,23,10,09,15.00
2006,04,23,10,10,15.10
2006,04,23,10,11,15.10
2006,04,23,10,12,15.10
2006,04,23,10,13,15.20
2006,04,23,10,14,15.20
2006,04,23,10,15,15.20
2006,04,23,10,16,15.20
2006,04,23,10,17,15.30
2006,04,23,10,18,15.30
2006,04,23,10,19,15.30
2006,04,23,10,20,15.30
2006,04,23,10,21,15.30
2006,04,23,10,22,15.30
2006,04,23,10,23,15.30
2006,04,23,10,24,15.30
2006,04,23,10,25,15.30
2006,04,23,10,26,15.30
2006,04,23,10,27,15.30
2006,04,23,10,28,15.40
2006,04,23,10,29,15.50
2006,04,23,10,30,15.50
2006,04,23,10,31,15.60
2006,04,23,10,32,15.60
2006,04,23,10,33,15.60
2006,04,23,10,34,15.50
2006,04,23,10,35,15.50
2006,04,23,10,36,15.50
2006,04,23,10,37,15.50
2006,04,23,10,38,15.50
2006,04,23,10,39,15.50
2006,04,23,10,40,15.60
2006,04,23,10,41,15.70
2006,04,23,10,42,15.70
2006,04,23,10,43,15.60
2006,04,23,10,44,15.60
2006,04,23,10,45,15.60
2006,04,23,10,46,15.70
2006,04,23,10,47,15.60
2006,04,23,10,48,15.60
2006,04,23,10,49,15.70
2006,04,23,10,50,15.80
2006,04,23,10,51,15.80
2006,04,23,10,52,15.80
2006,04,23,10,53,15.90
2006,04,23,10,54,15.90
2006,04,23,10,55,15.80
2006,04,23,10,56,15.80
2006,04,23,10,57,15.80
2006,04,23,10,58,15.80
2006,04,23,10,59,15.80
2006,04,23,11,00,15.80
2006,04,23,11,01,15.80
2006,04,23,11,02,15.80
2006,04,23,11,03,15.80
2006,04,23,11,04,15.80
2006,04,23,11,05,15.80
2006,04,23,11,06,15.90
2006,04,23,11,07,15.90
2006,04,23,11,08,15.90
2006,04,23,11,09,16.00
2006,04,23,11,10,16.10
2006,04,23,11,11,16.10
2006,04,23,11,12,16.20
2006,04,23,11,13,16.30
2006,04,23,11,14,16.40
2006,04,23,11,15,16.40
2006,04,23,11,16,16.50
2006,04,23,11,17,16.60
2006,04,23,11,18,16.70
2006,04,23,11,19,16.70
2006,04,23,11,20,16.60
2006,04,23,11,21,16.40
2006,04,23,11,22,16.30
2006,04,23,11,23,16.30
2006,04,23,11,24,16.40
2006,04,23,11,25,16.50
2006,04,23,11,26,16.60
2006,04,23,11,27,16.60
2006,04,23,11,28,16.60
2006,04,23,11,29,16.60
2006,04,23,11,30,16.50
2006,04,23,11,31,16.40
2006,04,23,11,32,16.40
2006,04,23,11,33,16.40
2006,04,23,11,34,16.40
2006,04,23,11,35,16.40
2006,04,23,11,36,16.60
2006,04,23,11,37,16.70
2006,04,23,11,38,16.70
2006,04,23,11,39,16.70
2006,04,23,11,40,16.70
2006,04,23,11,41,16.70
2006,04,23,11,42,16.60
2006,04,23,11,43,16.50
2006,04,23,11,44,16.50
2006,04,23,11,45,16.60
2006,04,23,11,46,16.70
2006,04,23,11,47,16.80
2006,04,23,11,48,16.80
2006,04,23,11,49,16.80
2006,04,23,11,50,16.90
2006,04,23,11,51,16.90
2006,04,23,11,52,16.90
2006,04,23,11,53,16.90
2006,04,23,11,54,16.90
2006,04,23,11,55,16.90
2006,04,23,11,56,17.00
2006,04,23,11,57,17.00
2006,04,23,11,58,17.00
2006,04,23,11,59,17.00
2006,04,23,12,00,16.90
2006,04,23,12,01,16.90
2006,04,23,12,02,16.90
2006,04,23,12,03,17.00
2006,04,23,12,04,17.00
2006,04,23,12,05,17.10
2006,04,23,12,06,17.20
2006,04,23,12,07,17.30
2006,04,23,12,08,17.40
2006,04,23,12,09,17.40
2006,04,23,12,10,17.40
2006,04,23,12,11,17.30
2006,04,23,12,12,17.30
2006,04,23,12,13,17.40
2006,04,23,12,14,17.40
2006,04,23,12,15,17.40
2006,04,23,12,16,17.30
2006,04,23,12,17,17.30
2006,04,23,12,18,17.40
2006,04,23,12,19,17.40
2006,04,23,12,20,17.30
2006,04,23,12,21,17.30
2006,04,23,12,22,17.30
2006,04,23,12,23,17.20
2006,04,23,12,24,17.20
2006,04,23,12,25,17.20
2006,04,23,12,26,17.20
2006,04,23,12,27,17.30
2006,04,23,12,28,17.20
2006,04,23,12,29,17.30
2006,04,23,12,30,17.30
2006,04,23,12,31,17.30
2006,04,23,12,32,17.30
2006,04,23,12,33,17.40
2006,04,23,12,34,17.40
2006,04,23,12,35,17.40
2006,04,23,12,36,17.40
2006,04,23,12,37,17.40
2006,04,23,12,38,17.60
2006,04,23,12,39,17.60
2006,04,23,12,40,17.50
2006,04,23,12,41,17.50
2006,04,23,12,42,17.50
2006,04,23,12,43,17.70
2006,04,23,12,44,17.70
2006,04,23,12,45,17.80
2006,04,23,12,46,17.70
2006,04,23,12,47,17.70
2006,04,23,12,48,17.70
2006,04,23,12,49,17.80
2006,04,23,12,50,17.80
2006,04,23,12,51,17.80
2006,04,23,12,52,17.90
2006,04,23,12,53,17.80
2006,04,23,12,54,17.70
2006,04,23,12,55,17.70
2006,04,23,12,56,17.80
2006,04,23,12,57,17.80
2006,04,23,12,58,17.80
2006,04,23,12,59,17.90
2006,04,23,13,00,17.90
2006,04,23,13,01,17.90
2006,04,23,13,02,17.90
2006,04,23,13,03,17.90
2006,04,23,13,04,17.90
2006,04,23,13,05,17.90
2006,04,23,13,06,17.90
2006,04,23,13,07,17.90
2006,04,23,13,08,17.90
2006,04,23,13,09,17.90
2006,04,23,13,10,17.90
2006,04,23,13,11,17.90
2006,04,23,13,12,17.90
2006,04,23,13,13,17.90
2006,04,23,13,14,18.10
2006,04,23,13,15,18.00
2006,04,23,13,16,17.90
2006,04,23,13,17,17.90
2006,04,23,13,18,17.90
2006,04,23,13,19,17.90
2006,04,23,13,20,17.90
2006,04,23,13,21,17.90
2006,04,23,13,22,17.90
2006,04,23,13,23,17.90
2006,04,23,13,24,17.90
2006,04,23,13,25,17.90
2006,04,23,13,26,17.90
2006,04,23,13,27,18.00
2006,04,23,13,28,18.10
2006,04,23,13,29,18.20
2006,04,23,13,30,18.20
2006,04,23,13,31,18.20
2006,04,23,13,32,18.20
2006,04,23,13,33,18.20
2006,04,23,13,34,18.20
2006,04,23,13,35,18.30
2006,04,23,13,36,18.30
2006,04,23,13,37,18.20
2006,04,23,13,38,18.20
2006,04,23,13,39,18.20
2006,04,23,13,40,18.30
2006,04,23,13,41,18.40
2006,04,23,13,42,18.50
2006,04,23,13,43,18.50
2006,04,23,13,44,18.40
2006,04,23,13,45,18.40
2006,04,23,13,46,18.50
2006,04,23,13,47,18.40
2006,04,23,13,48,18.50
2006,04,23,13,49,18.40
2006,04,23,13,50,18.40
2006,04,23,13,51,18.50
2006,04,23,13,52,18.60
2006,04,23,13,53,18.70
2006,04,23,13,54,18.90
2006,04,23,13,55,19.10
2006,04,23,13,56,19.10
2006,04,23,13,57,19.00
2006,04,23,13,58,18.80
2006,04,23,13,59,18.80
2006,04,23,14,00,18.80
2006,04,23,14,01,18.80
2006,04,23,14,02,18.70
2006,04,23,14,03,18.70
2006,04,23,14,04,18.70
2006,04,23,14,05,18.70
2006,04,23,14,06,18.80
2006,04,23,14,07,18.90
2006,04,23,14,08,18.90
2006,04,23,14,09,18.90
2006,04,23,14,10,18.80
2006,04,23,14,11,18.80
2006,04,23,14,12,18.90
2006,04,23,14,13,18.90
2006,04,23,14,14,18.90
2006,04,23,14,15,18.90
2006,04,23,14,16,18.90
2006,04,23,14,17,18.90
2006,04,23,14,18,18.90
2006,04,23,14,19,19.00
2006,04,23,14,20,19.10
2006,04,23,14,21,19.10
2006,04,23,14,22,19.10
2006,04,23,14,23,19.00
2006,04,23,14,24,18.90
2006,04,23,14,25,19.00
2006,04,23,14,26,19.10
2006,04,23,14,27,19.10
2006,04,23,14,28,19.10
2006,04,23,14,29,19.10
2006,04,23,14,30,19.10
2006,04,23,14,31,19.10
2006,04,23,14,32,19.10
2006,04,23,14,33,19.20
2006,04,23,14,34,19.20
2006,04,23,14,35,19.30
2006,04,23,14,36,19.30
2006,04,23,14,37,19.30
2006,04,23,14,38,19.20
2006,04,23,14,39,19.20
2006,04,23,14,40,19.10
2006,04,23,14,41,19.10
2006,04,23,14,42,19.20
2006,04,23,14,43,19.20
2006,04,23,14,44,19.10
2006,04,23,14,45,19.10
2006,04,23,14,46,19.10
2006,04,23,14,47,19.10
2006,04,23,14,48,19.10
2006,04,23,14,49,19.10
2006,04,23,14,50,19.30
2006,04,23,14,51,19.30
2006,04,23,14,52,19.40
2006,04,23,14,53,19.40
2006,04,23,14,54,19.50
2006,04,23,14,55,19.50
2006,04,23,14,56,19.50
2006,04,23,14,57,19.60
2006,04,23,14,58,19.60
2006,04,23,14,59,19.60
2006,04,23,15,00,19.50
2006,04,23,15,01,19.50
2006,04,23,15,02,19.50
2006,04,23,15,03,19.40
2006,04,23,15,04,19.20
2006,04,23,15,05,18.80
2006,04,23,15,06,18.50
2006,04,23,15,07,18.20
2006,04,23,15,08,17.80
2006,04,23,15,09,17.60
2006,04,23,15,10,17.40
2006,04,23,15,11,17.30
2006,04,23,15,12,17.30
2006,04,23,15,13,17.30
2006,04,23,15,14,17.30
2006,04,23,15,15,17.30
2006,04,23,15,16,17.30
2006,04,23,15,17,17.30
2006,04,23,15,18,17.30
2006,04,23,15,19,17.30
2006,04,23,15,20,17.40
2006,04,23,15,21,17.40
2006,04,23,15,22,17.40
2006,04,23,15,23,17.40
2006,04,23,15,24,17.30
2006,04,23,15,25,17.30
2006,04,23,15,26,17.30
2006,04,23,15,27,17.30
2006,04,23,15,28,17.30
2006,04,23,15,29,17.30
2006,04,23,15,30,17.40
2006,04,23,15,31,17.50
2006,04,23,15,32,17.50
2006,04,23,15,33,17.50
2006,04,23,15,34,17.50
2006,04,23,15,35,17.30
2006,04,23,15,36,17.20
2006,04,23,15,37,17.00
2006,04,23,15,38,16.90
2006,04,23,15,39,16.90
2006,04,23,15,40,16.70
2006,04,23,15,41,16.50
2006,04,23,15,42,16.40
2006,04,23,15,43,16.30
2006,04,23,15,44,16.30
2006,04,23,15,45,16.20
2006,04,23,15,46,16.20
2006,04,23,15,47,16.10
2006,04,23,15,48,16.00
2006,04,23,15,49,15.90
2006,04,23,15,50,15.80
2006,04,23,15,51,15.60
2006,04,23,15,52,15.60
2006,04,23,15,53,15.50
2006,04,23,15,54,15.60
2006,04,23,15,55,15.60
2006,04,23,15,56,15.70
2006,04,23,15,57,15.70
2006,04,23,15,58,15.70
2006,04,23,15,59,15.80
2006,04,23,16,00,15.90
2006,04,23,16,01,15.90
2006,04,23,16,02,15.80
2006,04,23,16,03,15.80
2006,04,23,16,04,15.70
2006,04,23,16,05,15.60
2006,04,23,16,06,15.60
2006,04,23,16,07,15.60
2006,04,23,16,08,15.60
2006,04,23,16,09,15.60
2006,04,23,16,10,15.70
2006,04,23,16,11,15.80
2006,04,23,16,12,15.80
2006,04,23,16,13,15.80
2006,04,23,16,14,15.80
2006,04,23,16,15,15.90
2006,04,23,16,16,15.90
2006,04,23,16,17,15.90
2006,04,23,16,18,15.90
2006,04,23,16,19,15.90
2006,04,23,16,20,15.80
2006,04,23,16,21,15.80
2006,04,23,16,22,15.80
2006,04,23,16,23,15.70
2006,04,23,16,24,15.70
2006,04,23,16,25,15.70
2006,04,23,16,26,15.60
2006,04,23,16,27,15.60
2006,04,23,16,28,15.60
2006,04,23,16,29,15.70
2006,04,23,16,30,15.70
2006,04,23,16,31,15.60
2006,04,23,16,32,15.60
2006,04,23,16,33,15.60
2006,04,23,16,34,15.60
2006,04,23,16,35,15.60
2006,04,23,16,36,15.60
2006,04,23,16,37,15.60
2006,04,23,16,38,15.50
2006,04,23,16,39,15.60
2006,04,23,16,40,15.60
2006,04,23,16,41,15.50
2006,04,23,16,42,15.40
2006,04,23,16,43,15.40
2006,04,23,16,44,15.40
2006,04,23,16,45,15.40
2006,04,23,16,46,15.40
2006,04,23,16,47,15.30
2006,04,23,16,48,15.30
2006,04,23,16,49,15.30
2006,04,23,16,50,15.30
2006,04,23,16,51,15.30
2006,04,23,16,52,15.30
2006,04,23,16,53,15.20
2006,04,23,16,54,15.20
2006,04,23,16,55,15.20
2006,04,23,16,56,15.20
2006,04,23,16,57,15.20
2006,04,23,16,58,15.30
2006,04,23,16,59,15.20
2006,04,23,17,00,15.10
2006,04,23,17,01,15.00
2006,04,23,17,02,15.00
2006,04,23,17,03,15.00
2006,04,23,17,04,15.10
2006,04,23,17,05,15.20
2006,04,23,17,06,15.20
2006,04,23,17,07,15.30
2006,04,23,17,08,15.40
2006,04,23,17,09,15.40
2006,04,23,17,10,15.40
2006,04,23,17,11,15.40
2006,04,23,17,12,15.40
2006,04,23,17,13,15.40
2006,04,23,17,14,15.40
2006,04,23,17,15,15.30
2006,04,23,17,16,15.30
2006,04,23,17,17,15.30
2006,04,23,17,18,15.40
2006,04,23,17,19,15.40
2006,04,23,17,20,15.40
2006,04,23,17,21,15.30
2006,04,23,17,22,15.30
2006,04,23,17,23,15.30
2006,04,23,17,24,15.30
2006,04,23,17,25,15.30
2006,04,23,17,26,15.30
2006,04,23,17,27,15.30
2006,04,23,17,28,15.30
2006,04,23,17,29,15.20
2006,04,23,17,30,15.20
2006,04,23,17,31,15.20
2006,04,23,17,32,15.20
2006,04,23,17,33,15.20
2006,04,23,17,34,15.20
2006,04,23,17,35,15.20
2006,04,23,17,36,15.20
2006,04,23,17,37,15.30
2006,04,23,17,38,15.30
2006,04,23,17,39,15.30
2006,04,23,17,40,15.30